STARLINK-31585, 59608

Orbit data source: Space-Track

STARLINK-31585, 59608 is a payload satellite owned by SpaceX/Seattle (US) in LEO that was launched on Sun, 28 Apr 2024 UTC via an FALCON 9 launch vehicle from the Air Force Eastern Test Range (AFETR). Payload-class satellites include a variety of spacecraft equipped with specific instruments for various scientific and technological missions. These include communications satellites like Starlink; space stations such as the ISS; scientific satellites like the Hubble; Earth observation satellites from companies like Planet Labs, Umbra, and HawkEye 360; GPS; miniature CubeSats for education and research; and military/defense satellites.

Loading next visibility...
Identifier
59608, 2024-080H
Orbit
LEO
Country
Flag of USUS
Related business
Manufacturer
SpaceX/Seattle
Mission
Operational Commercial Communications
Bus & Motor
STARLINK V2M, Unknown motor
Mass
730 kg wet, ~700 kg dry
Launch date (UTC)
2024-04-28 (2 years ago)
Launch vehicle
FALCON 9
Launch site
Air Force Eastern Test Range (AFETR)
Object type
Payload
Rocket body
Debris
Shape & HBR
Box + 2 Pan, 17.7 m
Radar Cross Section
33.884 m², Large (>1 m²)

Expand to show TLE details & history
Last TLE update: 2 days ago

TLE from 2 days ago
0 STARLINK-31585
1 59608U 24080H   26171.05425388  .00000282  00000-0  19763-4 0  9996
2 59608  43.0013 175.8582 0001183 271.4320  88.6396 15.27576518120245
Epoch: 2026-06-20T01:18Z
TLE epoch observation values (Epoch: 2026-06-20T01:18:07.535Z)
Latitude
-0.00002°
Longitude
-111.9476°
Altitude
482.816 km
Speed
7.626 km/s
True Right ascension
11h 43m 25s
True Declination
0° 00' 00"
Sunlit
Object was in daylight at epoch
Visualization orbit readout
Latitude
Unknown
Longitude
Unknown
Altitude
Unknown
Speed
Unknown
Apparent Right ascension
Unknown
Apparent Declination
Unknown
Sunlit
N/A
Visualization observer readout
Local Sidereal Time
21:41:38
Azimuth
Unknown
Elevation
Unknown
Doppler factor
Unknown
Orbital elements
Apogee altitude
485.816 km
Perigee altitude
484.193 km
Semi-major axis
6,863.141 km
Eccentricity
0.00012
Inclination
43.0013°
RAAN
175.8582°
Arg. of periapsis
271.432°
True anomaly
88.65315°
Mean anomaly
88.6396°
Eccentric anomaly
88.64638°
Mean motion
3.81732 °/min
Orbital period
94.31 mins
BSTAR
0.000019763
Loading maneuver chart data...
Computing Atmospheric mass density...
Loading historical data...
Loading historical data...
Loading historical data...
Loading historical data...
Loading historical data...
Loading historical data...
Loading historical data...

Documentation

Showing up to 5 results
|